Regional Weather Roundup
Issued by NWS

Home | Current Version | Previous Version | Graphics & Text | Print | Product List | Glossary On
Versions: 1 2 3 4 5 6 7 8 9 10 11 12 13 14 15 16 17 18 19 20 21 22 23 24 25 26 27 28 29 30 31 32 33 34 35 36 37 38 39 40 41 42 43 44 45 46 47 48 49 50
000
ASUS43 KFSD 280802
RWRSD

WEATHER ROUNDUP FOR SOUTH DAKOTA
NATIONAL WEATHER SERVICE SIOUX FALLS SD
300 AM CDT THU JUL 28 2016

NOTE: "FAIR" INDICATES FEW OR NO CLOUDS BELOW 12,000 FEET WITH NO
SIGNIFICANT WEATHER AND/OR OBSTRUCTIONS TO VISIBILITY.


SDZ001>005-009-010-012>017-280900-
NORTHWEST AND NORTH CENTRAL SOUTH DAKOTA

CITY           SKY/WX    TMP DP  RH WIND       PRES   REMARKS
BUFFALO          N/A     61  59  93 W5        30.07S
FAITH            N/A     62  58  86 SE12      30.09F
MOBRIDGE       CLEAR     65  58  78 E10       30.08F
$$

SDZ012>016-024>037-041>051-057-063-072>074-280900-
SOUTHWEST AND SOUTH CENTRAL SOUTH DAKOTA

CITY           SKY/WX    TMP DP  RH WIND       PRES   REMARKS
RAPID CTY ARPT PTCLDY    61  57  87 SW5       30.12F
PIERRE         CLEAR     61  60  97 E3        30.07F
CUSTER         CLOUDY    58  54  86 NW6       30.26F
ELLSWORTH AFB  MOCLDY    62  60  93 S6        30.11F
PHILIP         CLOUDY    58  57  97 W5        30.09F
PINE RIDGE     MOCLDY    64  63  96 N6        30.18R
WINNER         FAIR      61  58  90 CALM      30.09F
$$

SDZ004>011-016>023-039-040-280900-
NORTHEAST SOUTH DAKOTA

CITY           SKY/WX    TMP DP  RH WIND       PRES   REMARKS
ABERDEEN       CLOUDY    63  59  87 N7        30.09F
WATERTOWN      CLOUDY    62  57  83 N6        30.06F
BROOKINGS      CLOUDY    61  58  90 N6        30.05F
SISSETON         N/A     62  58  86 NW8       30.05F
$$

SDZ017-020-022-023-036>040-048>070-280900-
SOUTHEAST SOUTH DAKOTA

CITY           SKY/WX    TMP DP  RH WIND       PRES   REMARKS
SIOUX FALLS    CLOUDY    63  58  83 N3        30.04S
HURON          MOCLDY    63  59  87 NW6       30.06S
CHAMBERLAIN    MOCLDY    67  61  79 NE5       30.08S
MITCHELL       PTCLDY    65  62  90 NW5       30.06R
YANKTON        PTCLDY    68  61  77 CALM      30.02S
$$

ABBREVIATIONS USED IN REMARKS
   TC - TEMPERATURE IN CELSIUS
  WCI - WIND CHILL INDEX
   HX - HEAT INDEX
  VSB - VISIBILITY





USA.gov is the U.S. government's official web portal to all federal, state and local government web resources and services.